Regional Weather Roundup
Issued by NWS Charleston, SC

Current Version | Previous Version | Graphics & Text | Print | Product List | Glossary On
Versions: 1 2 3 4 5 6 7 8 9 10 11 12 13 14 15 16 17 18 19 20 21 22 23 24 25 26 27 28 29 30 31 32 33 34 35 36 37 38 39 40 41 42 43 44 45 46 47 48 49 50
000
ASUS42 KCHS 021212
RWRCHS

REGIONAL WEATHER ROUNDUP
NATIONAL WEATHER SERVICE CHARLESTON SC
700 AM EST FRI DEC 02 2016

NOTE: "FAIR" INDICATES FEW OR NO CLOUDS BELOW 12,000 FEET WITH NO
SIGNIFICANT WEATHER AND/OR OBSTRUCTIONS TO VISIBILITY.

NOT ALL STATIONS ARE QUALITY CONTROLLED. USE DATA WITH CAUTION...
ESPECIALLY DEWPOINT OBSERVATIONS.

SCZ027-030-031-034>040-042>050-021300-
...SOUTHEAST SOUTH CAROLINA...

CITY           SKY/WX    TMP DP  RH WIND       PRES   REMARKS
N CHARLESTON   CLOUDY    40  34  79 NW6       30.12R WCI  36
6HR MIN TEMP:  40; 6HR MAX TEMP:  49;

WATERFRONT PRK   N/A     45  38  76 W5        30.10R
MOUNT PLEASANT NOT AVBL
JOHNS ISLAND   FAIR      41  36  81 W7        30.12R
PINOPOLIS        N/A     50  39  66 NE13      30.03R
MONCKS CORNER  FAIR      36  34  93 CALM      30.13R
SUMMERVILLE    FAIR      36  36 100 CALM      30.14R
BEAUFORT MCAS  PTCLDY    44  34  67 NW6       30.14R
6HR MIN TEMP:  43; 6HR MAX TEMP:  51;

BEAUFORT ARPT  FAIR      45  36  70 NW6       30.13R
HILTON HEAD IS CLEAR     45  34  65 NW3       30.14R
WALTERBORO     MOSUNNY   39  39 100 NW6       30.14R WCI  35
ALLENDALE      FAIR      39  34  81 NW5       30.14R WCI  36

...SOUTHERN MIDLANDS AND PEE DEE...

CITY           SKY/WX    TMP DP  RH WIND       PRES   REMARKS
GEORGETOWN     NOT AVBL
KINGSTREE      FAIR      34  32  93 CALM      30.13R
ORANGEBURG     CLOUDY    38  34  85 CALM      30.14R
6HR MIN TEMP:  38; 6HR MAX TEMP:  45;

BARNWELL       NOT AVBL
AIKEN          FAIR      34  32  93 CALM      30.17R
MANNING        NOT AVBL
COLUMBIA       CLEAR     36  33  89 W3        30.15R
6HR MIN TEMP:  36; 6HR MAX TEMP:  48;

SUMTER         CLEAR     39  33  79 CALM      30.12R
6HR MIN TEMP:  39; 6HR MAX TEMP:  47;

FLORENCE       CLEAR     40  35  83 N3        30.13R
6HR MIN TEMP:  40; 6HR MAX TEMP:  48;

MYRTLE BEACH   CLEAR     43  36  75 N9        30.12R
N MYRTLE BEACH CLEAR     43  36  75 N8        30.10

$$

GAZ063-065-086>088-099>101-113>116-118-119-134>141-150-021300-
...SOUTHEAST GEORGIA...

CITY           SKY/WX    TMP DP  RH WIND       PRES   REMARKS
SAVANNAH ARPT  PTCLDY    40  34  79 W5        30.15  WCI  37
6HR MIN TEMP:  39; 6HR MAX TEMP:  48;

HUNTER AAF     CLEAR     40  36  87 W5        30.13R WCI  36
6HR MIN TEMP:  38; 6HR MAX TEMP:  48;

FORT STEWART   CLEAR     39  33  78 CALM      30.14R
6HR MIN TEMP:  37; 6HR MAX TEMP:  47;

STATESBORO     CLEAR     39  36  90 NW5       30.15R WCI  35
SYLVANIA       MOSUNNY  N/A N/A N/A CALM      30.16R
CLAXTON        FAIR     N/A N/A N/A SW3       30.17R

...CSRA...CENTRAL AND FAR SOUTHEAST GEORGIA...

CITY           SKY/WX    TMP DP  RH WIND       PRES   REMARKS
THOMSON        CLEAR     35  35 100 CALM      30.20R
AUGUSTA-BUSH   CLEAR     34  31  88 CALM      30.16R
6HR MIN TEMP:  33; 6HR MAX TEMP:  45;

AUGUSTA-DANIEL CLEAR     43  31  62 NW8       30.15R
SWAINSBORO     FAIR      36  34  93 CALM      30.17R
VIDALIA        CLEAR     43  36  75 CALM      30.17R
EASTMAN        FAIR      37  33  85 CALM      30.21R
HAZLEHURST     FAIR      39  39 100 CALM      30.18R
ALMA           CLEAR     39  35  86 NW3       30.18R
6HR MIN TEMP:  36; 6HR MAX TEMP:  45;

WAYCROSS       CLEAR     44  38  81 CALM      30.18R
JESUP          FAIR      36  36 100 CALM      30.17R
BAXLEY         FAIR      41  37  87 CALM      30.18R
BRUNSWICK      PTCLDY    37  37 100 CALM      30.17R FOG
SAINT SIMONS   CLEAR     46  36  68 NW5       30.15R
6HR MIN TEMP:  46; 6HR MAX TEMP:  52;


$$

SCZ027-028-034-036>038-045-046-048>050-GAZ119-141-021300-
...LAKE AND SUPPLEMENTAL COASTAL OBSERVATIONS...

STATION/POSITION TIME  TEMP    WIND        PRES    WAVE   SWELL
                       AIR SEA DIR/SP/G            HT/PER HT/PER/DIR
                 (UTC) (F)     (DEG/KT/KT) (MB)    (FT/S) (FT/S/D)
WINYAH BAY       1045   43     330/  5     1017.0
LAKE MURRAY      1120   44     290/  4/  6 1020.0R
ACE BASIN NERRS  1045   43        CALM     1019.0
FORT PULASKI     1148   48 63  320/ 10/ 13 1020.8R
SAPELO ISLAND    1100   47     320/  6     1020.0

$$

ANZ835-935-AMZ111-154-330-350-352-354-370-450-454-472-021300-
...C-MAN AND BUOY OBSERVATIONS...

STATION/POSITION TIME  TEMP    WIND        PRES    WAVE   SWELL
                       AIR SEA DIR/SP/G            HT/PER HT/PER/DIR
                 (UTC) (F)     (DEG/KT/KT) (MB)    (FT/S) (FT/S/D)
BUOY 41004       1150   58 74  330/ 12/ 14 1018.6R   4/ 5   2/240/ 5
BUOY 41008       1150   55 65  340/ 16/ 17 1020.3R   3/ 5   2/120/ 8
FOLLY BEACH CMAN 1100   45     300/  4/  7 1019.6R
CAPERS NEARSHORE 1108   50 63  320/ 12/ 16 1018.6R
FRIPP NEARSHORE  1108   51 63  320/ 14/ 17 1019.2R


STATION/POSITION TIME  TEMP    WIND        PRES    WAVE   SWELL
                       AIR SEA DIR/SP/G            HT/PER HT/PER/DIR
                 (UTC) (F)     (DEG/KT/KT) (MB)    (FT/S) (FT/S/D)
5E ST. MARYS GA  1130      67                N/A     4/ 5
FRYING PAN BUOY  1150   58 75   10/ 16/ 17 1017.8R   5/ 5
BUOY 41025       1150   58 76   10/ 14/ 19 1016.7R   3/ 8   2/160/ 8
CAPE LOOKOUT NC  1100   47     350/ 12/ 14 1017.0R
BUOY 41002       1150   72 74  310/ 14/ 17 1015.6R   6/ 7   3/280/ 7
BUOY 41010       NOT AVBL
ST AUGUSTINE FL  1200   52 67  320/  9/ 11 1021.6R


$$




USA.gov is the U.S. government's official web portal to all federal, state and local government web resources and services.